time_stamp(utc),avg(mph),gust(mph),direction(deg),12m_air_temp(f),sonic_u(cm/s),sonic_v(cm/s),sonic_w(cm/s),pressure,2m_air_temp(f),pyranometer(W/m^2)
"2017-10-13 00:02:42+00",25.1,30.1,,61.1,1101,345,71,1026.06,60.7,0
"2017-10-13 00:07:42+00",22.2,26.2,,61.1,988,162,46,1026.12,60.7,0
"2017-10-13 00:12:42+00",24.2,27.2,,61.1,1057,313,66,1026.13,60.8,0
"2017-10-13 00:17:42+00",23.9,27.9,,61.1,1044,279,65,1026.06,60.7,0
"2017-10-13 00:22:42+00",22.3,26.3,,61.1,982,215,64,1026.14,60.7,0
"2017-10-13 00:27:42+00",23.3,29.3,,61.2,1013,281,57,1026.13,60.7,0
"2017-10-13 00:32:42+00",24.8,28.8,,61,1080,320,71,1026.09,60.7,0
"2017-10-13 00:37:42+00",26.5,29.5,,61,1172,150,53,1026.17,60.7,0
"2017-10-13 00:42:42+00",23.4,28.4,,61,1050,113,57,1026.21,60.7,0
"2017-10-13 00:47:42+00",24.5,27.5,,61,1078,165,73,1026.33,60.6,0
"2017-10-13 00:52:42+00",21.8,27.8,,60.9,951,245,41,1026.27,60.7,0
"2017-10-13 00:57:42+00",21.9,26.9,,61,952,271,75,1026.19,60.6,0
"2017-10-13 01:02:42+00",25.2,29.2,,61,1135,78,46,1026.31,60.6,0
"2017-10-13 01:07:42+00",22.1,24.1,,61.1,979,168,42,1026.41,60.7,0
"2017-10-13 01:12:42+00",23.1,27.1,,61.1,1026,157,63,1026.51,60.7,0
"2017-10-13 01:17:42+00",26.0,29.0,,61.1,1162,121,65,1026.35,60.7,0
"2017-10-13 01:22:42+00",20.0,22.0,,61.1,880,207,49,1026.44,60.7,0
"2017-10-13 01:27:42+00",22.9,26.9,,60.9,999,262,47,1026.52,60.6,0
"2017-10-13 01:32:42+00",22.3,24.3,,60.9,986,260,72,1026.5,60.5,0
"2017-10-13 01:37:42+00",20.1,28.1,,60.9,887,229,41,1026.56,60.5,0
"2017-10-13 01:42:42+00",24.8,27.8,,60.9,1101,187,52,1026.55,60.5,0
"2017-10-13 01:47:42+00",21.4,25.4,,60.9,933,256,53,1026.58,60.5,0
"2017-10-13 01:52:42+00",21.8,29.8,,60.8,982,209,70,1026.55,60.4,0
"2017-10-13 01:57:42+00",23.9,26.9,,60.9,1053,225,57,1026.6,60.5,0
"2017-10-13 02:02:42+00",23.3,28.3,,60.9,1021,302,57,1026.55,60.6,0
"2017-10-13 02:07:42+00",25.1,28.1,,60.9,1110,231,55,1026.47,60.5,0
"2017-10-13 02:12:42+00",25.1,28.1,,60.9,1109,257,38,1026.47,60.5,0
"2017-10-13 02:17:42+00",26.5,28.5,,60.8,1187,123,52,1026.47,60.5,0
"2017-10-13 02:22:42+00",23.6,27.6,,60.8,1061,121,55,1026.43,60.5,0
"2017-10-13 02:27:42+00",26.9,29.9,,60.8,1180,295,57,1026.37,60.4,0
"2017-10-13 02:32:42+00",25.4,32.4,,60.8,1121,217,48,1026.37,60.4,0
"2017-10-13 02:37:42+00",27.5,30.5,,60.8,1212,240,58,1026.44,60.5,0
"2017-10-13 02:42:42+00",25.0,28.0,,60.9,1100,227,57,1026.44,60.5,0
"2017-10-13 02:47:42+00",25.3,29.3,,60.8,1116,273,53,1026.43,60.5,0
"2017-10-13 02:52:42+00",26.9,29.9,,60.9,1189,248,55,1026.45,60.5,0
"2017-10-13 02:57:42+00",23.6,27.6,,60.8,1053,153,48,1026.39,60.5,0
"2017-10-13 03:02:42+00",23.9,26.9,,60.8,1050,251,74,1026.39,60.5,0
"2017-10-13 03:07:42+00",26.4,28.4,,60.8,1179,191,56,1026.41,60.5,0
"2017-10-13 03:12:42+00",24.1,27.1,,60.7,1058,285,73,1026.47,60.4,0
"2017-10-13 03:17:42+00",24.4,29.4,,60.8,1083,198,72,1026.42,60.5,0
"2017-10-13 03:22:42+00",22.3,26.3,,60.8,1001,68,34,1026.43,60.5,0
"2017-10-13 03:27:42+00",26.3,29.3,,60.8,1174,115,51,1026.36,60.5,0
"2017-10-13 03:32:42+00",22.9,25.9,,60.8,1008,242,55,1026.38,60.5,0
"2017-10-13 03:37:42+00",20.0,22.0,,60.8,885,170,57,1026.42,60.6,0
"2017-10-13 03:42:42+00",21.5,25.5,,60.8,944,233,81,1026.38,60.5,0
"2017-10-13 03:47:42+00",21.9,25.9,,60.8,973,147,56,1026.4,60.5,0
"2017-10-13 03:52:42+00",22.5,24.5,,60.8,996,250,67,1026.3,60.6,0
"2017-10-13 03:57:42+00",23.6,27.6,,60.8,1038,305,43,1026.32,60.6,0
"2017-10-13 04:02:42+00",22.4,26.4,,60.8,983,293,53,1026.35,60.6,0
"2017-10-13 04:07:42+00",22.6,25.6,,60.9,1015,72,74,1026.34,60.7,0
"2017-10-13 04:12:42+00",20.8,24.8,,60.9,925,162,49,1026.35,60.7,0
"2017-10-13 04:17:42+00",24.0,28.0,,61,1070,135,50,1026.25,60.7,0
"2017-10-13 04:22:42+00",22.4,27.4,,60.9,989,222,69,1026.36,60.7,0
"2017-10-13 04:27:42+00",23.6,27.6,,61,1038,248,46,1026.31,60.7,0
"2017-10-13 04:32:42+00",26.2,30.2,,61.1,1171,111,28,1026.28,60.8,0
"2017-10-13 04:37:42+00",20.1,22.1,,61,892,143,50,1026.31,60.8,0
"2017-10-13 04:42:42+00",22.0,25.0,,60.9,967,221,66,1026.34,60.8,0
"2017-10-13 04:47:42+00",25.1,29.1,,61,1119,163,46,1026.3,60.8,0
"2017-10-13 04:52:42+00",21.4,25.4,,61.1,948,116,54,1026.34,60.8,0
"2017-10-13 04:57:42+00",19.5,23.5,,61,849,229,50,1026.34,60.8,0
"2017-10-13 05:02:42+00",23.1,26.1,,61.1,1043,39,66,1026.33,60.9,0
"2017-10-13 05:07:42+00",21.4,23.4,,61,923,319,51,1026.35,60.8,0
"2017-10-13 05:12:42+00",19.5,21.5,,61.1,860,144,65,1026.29,60.9,0
"2017-10-13 05:17:42+00",25.0,28.0,,61.1,1114,139,41,1026.19,60.9,0
"2017-10-13 05:22:42+00",19.2,25.2,,61,847,180,54,1026.34,60.9,0
"2017-10-13 05:27:42+00",21.2,25.2,,61,918,309,68,1026.3,60.9,0
"2017-10-13 05:32:42+00",21.3,25.3,,61.2,960,96,51,1026.35,60.9,0
"2017-10-13 05:37:42+00",19.5,22.5,,61,845,280,60,1026.36,60.9,0
"2017-10-13 05:42:42+00",23.4,26.4,,61.1,1034,190,56,1026.38,61,0
"2017-10-13 05:47:42+00",21.4,24.4,,61.1,937,225,68,1026.34,61,0
"2017-10-13 05:52:42+00",21.5,25.5,,61.2,947,203,55,1026.37,61,0
"2017-10-13 05:57:42+00",20.2,23.2,,61.2,891,167,65,1026.41,61,0
"2017-10-13 06:02:42+00",20.9,24.9,,61.2,910,257,57,1026.45,61,0
"2017-10-13 06:07:42+00",20.7,23.7,,61.2,897,315,47,1026.43,61.1,0
"2017-10-13 06:12:42+00",19.4,21.4,,61.2,820,325,62,1026.42,61.1,0
"2017-10-13 06:17:42+00",22.7,24.7,,61.1,1006,174,45,1026.3,61.1,0
"2017-10-13 06:22:42+00",23.2,25.2,,61.2,1017,261,48,1026.33,61,0
"2017-10-13 06:27:42+00",20.6,23.6,,61.3,894,295,48,1026.25,61.2,0
"2017-10-13 06:32:42+00",23.5,27.5,,61.2,1041,187,73,1026.29,61.2,0
"2017-10-13 06:37:42+00",21.3,26.3,,61.2,952,175,61,1026.24,61.2,0
"2017-10-13 06:42:42+00",21.5,25.5,,61.3,933,254,58,1026.21,61.2,0
"2017-10-13 06:47:42+00",22.4,28.4,,61.2,970,272,55,1026.31,61.2,0
"2017-10-13 06:52:42+00",20.9,23.9,,61.3,905,282,63,1026.34,61.3,0
"2017-10-13 06:57:42+00",24.5,29.5,,61.3,1038,393,56,1026.29,61.2,0
"2017-10-13 07:02:42+00",23.2,28.2,,61.2,1019,277,62,1026.31,61.2,0
"2017-10-13 07:07:42+00",21.7,26.7,,61.3,944,313,41,1026.34,61.3,0
"2017-10-13 07:12:42+00",19.8,21.8,,61.4,866,246,50,1026.39,61.3,0
"2017-10-13 07:17:42+00",20.1,22.1,,61.3,866,311,64,1026.29,61.3,0
"2017-10-13 07:22:42+00",19.5,22.5,,61.4,853,250,39,1026.25,61.4,0
"2017-10-13 07:27:42+00",21.2,24.2,,61.3,929,263,60,1026.24,61.4,0
"2017-10-13 07:32:42+00",20.1,23.1,,61.4,871,266,72,1026.22,61.3,0
"2017-10-13 07:37:42+00",21.5,26.5,,61.4,944,257,81,1026.11,61.4,0
"2017-10-13 07:42:42+00",21.4,25.4,,61.4,937,297,61,1026.15,61.4,0
"2017-10-13 07:47:42+00",22.6,24.6,,61.4,988,293,55,1026.2,61.4,0
"2017-10-13 07:52:42+00",19.5,22.5,,61.5,840,307,63,1026.26,61.4,0
"2017-10-13 07:57:42+00",24.1,26.1,,61.4,1055,299,59,1026.24,61.4,0
"2017-10-13 08:02:42+00",20.5,22.5,,61.4,898,273,54,1026.36,61.4,0
"2017-10-13 08:07:42+00",21.3,24.3,,61.5,940,203,51,1026.33,61.4,0
"2017-10-13 08:12:42+00",21.5,25.5,,61.4,943,231,64,1026.37,61.4,0
"2017-10-13 08:17:42+00",21.0,25.0,,61.5,922,263,48,1026.34,61.4,0
"2017-10-13 08:22:42+00",19.2,23.2,,61.5,831,260,82,1026.42,61.4,0
"2017-10-13 08:27:42+00",23.7,26.7,,61.6,1034,275,47,1026.38,61.4,0
"2017-10-13 08:32:42+00",19.4,23.4,,61.6,847,246,45,1026.4,61.4,0
"2017-10-13 08:37:42+00",23.4,26.4,,61.6,1021,276,48,1026.32,61.4,0
"2017-10-13 08:42:42+00",18.2,20.2,,61.6,786,246,40,1026.4,61.5,0
"2017-10-13 08:47:42+00",22.4,24.4,,61.6,980,335,41,1026.42,61.4,0
"2017-10-13 08:52:42+00",18.7,21.7,,61.5,823,178,38,1026.53,61.4,0
"2017-10-13 08:57:42+00",15.9,18.9,,61.6,688,226,59,1026.52,61.4,0
"2017-10-13 09:02:42+00",18.3,20.3,,61.4,758,339,40,1026.57,61.3,0
"2017-10-13 09:07:42+00",17.9,23.9,,61.5,766,286,54,1026.63,61.3,0
"2017-10-13 09:12:42+00",19.2,21.2,,61.7,835,242,38,1026.65,61.4,0
"2017-10-13 09:17:42+00",18.8,21.8,,61.6,811,302,47,1026.71,61.4,0
"2017-10-13 09:22:42+00",21.0,25.0,,61.7,921,231,60,1026.67,61.4,0
"2017-10-13 09:27:42+00",22.4,26.4,,61.7,983,312,53,1026.6,61.4,0
"2017-10-13 09:32:42+00",19.4,22.4,,61.7,847,267,60,1026.65,61.4,0
"2017-10-13 09:37:42+00",21.0,23.0,,61.7,932,235,53,1026.62,61.4,0
"2017-10-13 09:42:42+00",19.7,22.7,,61.7,868,186,60,1026.61,61.4,0
"2017-10-13 09:47:42+00",20.3,23.3,,61.6,889,224,47,1026.65,61.4,0
"2017-10-13 09:52:42+00",22.1,25.1,,61.7,995,168,43,1026.64,61.4,0
"2017-10-13 09:57:42+00",20.5,22.5,,61.8,906,181,55,1026.61,61.4,0
"2017-10-13 10:02:42+00",20.7,24.7,,61.8,914,199,47,1026.69,61.4,0
"2017-10-13 10:07:42+00",22.2,26.2,,61.8,971,271,20,1026.72,61.4,0
"2017-10-13 10:12:42+00",22.2,25.2,,61.8,981,152,42,1026.78,61.5,0
"2017-10-13 10:17:42+00",19.7,23.7,,61.8,862,206,54,1026.86,61.5,0
"2017-10-13 10:22:42+00",18.1,21.1,,61.6,796,205,69,1026.89,61.4,0
"2017-10-13 10:27:42+00",21.5,23.5,,61.6,951,251,48,1026.83,61.3,0
"2017-10-13 10:32:42+00",24.6,26.6,,61.7,1096,157,64,1026.86,61.4,0
"2017-10-13 10:37:42+00",19.6,22.6,,61.7,863,218,49,1026.84,61.4,0
"2017-10-13 10:42:42+00",20.9,23.9,,61.7,922,192,67,1026.78,61.4,0
"2017-10-13 10:47:42+00",21.1,25.1,,61.8,931,239,66,1026.83,61.5,0
"2017-10-13 10:52:42+00",20.9,22.9,,61.8,922,206,45,1026.89,61.5,0
"2017-10-13 10:57:42+00",19.7,22.7,,61.8,866,206,32,1026.89,61.5,0
"2017-10-13 11:02:42+00",18.6,21.6,,61.7,812,225,40,1026.93,61.5,0
"2017-10-13 11:07:42+00",23.2,25.2,,61.8,1027,201,55,1026.91,61.4,0
"2017-10-13 11:12:42+00",18.7,21.7,,61.8,828,147,64,1027.05,61.5,0
"2017-10-13 11:17:42+00",24.4,28.4,,61.8,1074,235,43,1026.96,61.4,0
"2017-10-13 11:22:42+00",23.3,26.3,,61.9,1032,218,58,1027.03,61.5,0
"2017-10-13 11:27:42+00",21.6,24.6,,61.8,901,366,57,1027.08,61.6,0
"2017-10-13 11:32:42+00",21.7,24.7,,61.8,950,250,44,1027.13,61.5,0
"2017-10-13 11:37:42+00",21.3,24.3,,61.9,938,257,38,1027.2,61.5,0
"2017-10-13 11:42:42+00",17.1,19.1,,61.8,755,178,72,1027.28,61.5,0
"2017-10-13 11:47:42+00",17.7,19.7,,61.8,775,211,51,1027.2,61.6,0
"2017-10-13 11:52:42+00",22.9,25.9,,61.9,1009,234,44,1027.19,61.6,0
"2017-10-13 11:57:42+00",22.4,25.4,,61.9,990,210,42,1027.24,61.6,0
"2017-10-13 12:02:42+00",19.7,24.7,,61.9,865,177,46,1027.28,61.7,0
"2017-10-13 12:07:42+00",19.7,22.7,,61.9,867,249,59,1027.25,61.7,0
"2017-10-13 12:12:42+00",21.0,24.0,,62,930,199,44,1027.21,61.8,2.2
"2017-10-13 12:17:42+00",22.1,26.1,,62,983,139,49,1027.15,62,1.1
"2017-10-13 12:22:42+00",19.7,24.7,,62,855,261,37,1027.27,62,2.2
"2017-10-13 12:27:42+00",20.5,25.5,,62.2,875,316,32,1027.32,62.1,0
"2017-10-13 12:32:42+00",21.3,23.3,,62.1,922,250,58,1027.37,62.1,0
"2017-10-13 12:37:42+00",21.5,26.5,,62.2,953,224,55,1027.35,62,0
"2017-10-13 12:42:42+00",20.9,23.9,,62.2,912,265,42,1027.41,62.1,0
"2017-10-13 12:47:42+00",19.9,21.9,,62.2,876,229,54,1027.45,62.2,0
"2017-10-13 12:52:42+00",17.2,19.2,,62.2,748,234,76,1027.44,62.2,0
"2017-10-13 12:57:42+00",18.8,20.8,,62.3,822,251,44,1027.49,62.2,1.5
"2017-10-13 13:02:42+00",19.6,24.6,,62.3,857,221,38,1027.48,62.3,6.3
"2017-10-13 13:07:42+00",18.1,20.1,,62.4,788,240,14,1027.5,62.4,4.7
"2017-10-13 13:12:42+00",20.0,23.0,,62.5,887,170,48,1027.52,62.5,20.2
"2017-10-13 13:17:42+00",19.6,23.6,,62.5,867,126,52,1027.62,62.7,18.7
"2017-10-13 13:22:42+00",22.8,26.8,,62.6,1004,189,33,1027.6,62.8,16.1
"2017-10-13 13:27:42+00",20.0,25.0,,62.6,875,281,44,1027.57,62.8,5.6
"2017-10-13 13:32:42+00",17.9,22.9,,62.6,791,190,46,1027.68,62.8,9.3
"2017-10-13 13:37:42+00",20.4,23.4,,62.6,883,278,52,1027.66,62.8,10.8
"2017-10-13 13:42:42+00",19.6,22.6,,62.6,857,199,38,1027.64,62.8,11.7
"2017-10-13 13:47:42+00",16.8,19.8,,62.7,728,218,61,1027.64,62.8,10.2
"2017-10-13 13:52:42+00",20.7,22.7,,62.7,910,233,45,1027.57,62.9,23.9
"2017-10-13 13:57:42+00",20.8,24.8,,62.8,915,241,65,1027.63,63,27.6
"2017-10-13 14:02:42+00",18.0,24.0,,62.9,804,117,62,1027.67,63.1,35.3
"2017-10-13 14:07:42+00",20.8,23.8,,62.9,907,263,37,1027.64,63.2,37.2
"2017-10-13 14:12:42+00",19.5,22.5,,63,862,212,46,1027.64,63.4,53.8
"2017-10-13 14:17:42+00",18.8,21.8,,63.1,833,227,69,1027.69,63.5,42.7
"2017-10-13 14:22:42+00",20.6,24.6,,63.1,898,280,50,1027.61,63.6,34.8
"2017-10-13 14:27:42+00",22.0,24.0,,63.2,965,177,41,1027.7,63.7,41.8
"2017-10-13 14:32:42+00",19.4,21.4,,63.2,855,178,47,1027.78,63.7,39.3
"2017-10-13 14:37:42+00",23.0,25.0,,63.3,1012,259,34,1027.65,63.8,40.7
"2017-10-13 14:42:42+00",20.1,23.1,,63.5,899,155,63,1027.69,64,50.3
"2017-10-13 14:47:42+00",19.9,23.9,,63.6,883,146,41,1027.62,64.2,59.9
"2017-10-13 14:52:42+00",20.1,25.1,,63.7,899,200,45,1027.6,64.4,54
"2017-10-13 14:57:42+00",20.7,21.7,,63.7,906,210,41,1027.62,64.5,83
"2017-10-13 15:02:42+00",19.7,23.7,,63.9,883,104,43,1027.55,64.7,57.3
"2017-10-13 15:07:42+00",21.1,24.1,,63.8,922,273,28,1027.49,64.6,71.7
"2017-10-13 15:12:42+00",22.3,26.3,,63.9,983,230,36,1027.34,64.8,86.7
"2017-10-13 15:17:42+00",20.9,26.9,,64,916,280,39,1027.3,64.8,75.6
"2017-10-13 15:22:42+00",19.8,21.8,,64.1,865,286,49,1027.23,65,98.8
"2017-10-13 15:27:42+00",20.0,23.0,,64.3,884,162,72,1027.22,65.2,79.9
"2017-10-13 15:32:42+00",20.1,23.1,,64.2,883,234,51,1027.23,65.3,86
"2017-10-13 15:37:42+00",19.4,23.4,,64.3,846,274,52,1027.21,65.5,137.9
"2017-10-13 15:42:42+00",21.9,24.9,,64.3,965,214,49,1027.2,65.6,102.1
"2017-10-13 15:47:42+00",21.0,24.0,,64.2,913,282,31,1027.12,65.4,83.7
"2017-10-13 15:52:42+00",17.8,21.8,,64.3,792,192,56,1027.15,65.4,69.8
"2017-10-13 15:57:42+00",19.0,24.0,,64.4,834,183,62,1027.1,65.4,76.7
"2017-10-13 16:02:42+00",18.3,22.3,,64.4,798,223,74,1027,65.5,89.9
"2017-10-13 16:07:42+00",18.7,21.7,,64.5,820,200,50,1026.99,65.5,80.3
"2017-10-13 16:12:42+00",21.3,24.3,,64.4,934,261,50,1026.92,65.7,114.7
"2017-10-13 16:17:42+00",19.5,22.5,,64.8,854,240,50,1026.91,66.3,182.9
"2017-10-13 16:22:42+00",21.3,24.3,,65.1,959,85,54,1026.87,67.1,248.9
"2017-10-13 16:27:42+00",19.1,21.1,,65.2,841,194,54,1026.75,67.5,207.1
"2017-10-13 16:32:42+00",20.9,24.9,,65.3,915,214,47,1026.68,67.6,177.6
"2017-10-13 16:37:42+00",18.5,20.5,,65.2,812,216,64,1026.64,67.5,195.7
"2017-10-13 16:42:42+00",18.5,21.5,,65.1,815,154,52,1026.61,67.2,119.3
"2017-10-13 16:47:42+00",20.5,23.5,,65.2,914,93,38,1026.57,67.2,246.4
"2017-10-13 16:52:42+00",16.8,18.8,,65.3,749,137,55,1026.56,67.4,124.4
"2017-10-13 16:57:42+00",19.7,22.7,,65,868,174,39,1026.5,67.1,139.7
"2017-10-13 17:02:42+00",18.2,20.2,,65.3,804,103,61,1026.52,67.3,228
"2017-10-13 17:07:42+00",20.2,22.2,,65.2,881,225,37,1026.48,67.4,166.6
"2017-10-13 17:12:42+00",19.2,21.2,,65.1,838,212,44,1026.42,67.4,153.8
"2017-10-13 17:17:42+00",20.0,23.0,,65.3,888,143,40,1026.22,68,407.5
"2017-10-13 17:22:42+00",20.4,23.4,,65.4,899,253,49,1026.16,68.2,241.2
"2017-10-13 17:27:42+00",19.1,21.1,,65.4,847,175,43,1026.04,68,235.6
"2017-10-13 17:32:42+00",17.8,20.8,,65.5,781,196,38,1026.04,68.2,211.5
"2017-10-13 17:37:42+00",20.1,22.1,,65.5,885,175,67,1026.03,67.9,188.6
"2017-10-13 17:42:42+00",19.3,22.3,,65.5,867,64,45,1026.13,67.6,171.1
"2017-10-13 17:47:42+00",18.6,20.6,,65.7,832,85,30,1026.09,67.7,152.2
"2017-10-13 17:52:42+00",19.3,22.3,,65.4,851,171,39,1026.13,67.5,129.6
"2017-10-13 17:57:42+00",18.3,20.3,,65.5,805,186,49,1026.07,67.4,138.9
"2017-10-13 18:02:42+00",18.8,22.8,,65.4,827,199,69,1026.04,67.3,96.7
"2017-10-13 18:07:42+00",19.8,22.8,,65.4,882,122,31,1025.97,67.2,162.9
"2017-10-13 18:12:42+00",18.4,21.4,,65.6,813,197,50,1025.89,67.7,198
"2017-10-13 18:17:42+00",17.7,20.7,,65.5,777,203,48,1025.93,67.4,106.6
"2017-10-13 18:22:42+00",17.3,19.3,,65.4,748,254,45,1025.95,67.3,103.9
"2017-10-13 18:27:42+00",17.8,20.8,,65.4,769,251,37,1025.88,67.2,143.9
"2017-10-13 18:32:42+00",19.1,21.1,,65.8,861,59,40,1025.86,67.5,217.7
"2017-10-13 18:37:42+00",18.8,21.8,,65.6,830,195,50,1025.81,67.5,141.4
"2017-10-13 18:42:42+00",18.3,21.3,,65.7,798,215,40,1025.78,67.4,124.1
"2017-10-13 18:47:42+00",20.4,22.4,,65.3,896,299,39,1025.75,67.2,138
"2017-10-13 18:52:42+00",20.3,22.3,,65.2,894,213,44,1025.8,67,104.3
"2017-10-13 18:57:42+00",19.8,21.8,,65.1,862,283,33,1025.82,66.7,97.1
"2017-10-13 19:02:42+00",18.8,21.8,,65.1,821,241,57,1025.8,66.7,132.4
"2017-10-13 19:07:42+00",19.3,21.3,,65.2,858,167,58,1025.77,66.7,106.3
"2017-10-13 19:12:42+00",19.3,22.3,,65,828,285,29,1025.85,66.6,67.1
"2017-10-13 19:17:42+00",18.5,21.5,,65.2,814,181,75,1025.75,66.5,78.8
"2017-10-13 19:22:42+00",21.4,23.4,,65.2,945,171,30,1025.66,66.5,92.2
"2017-10-13 19:27:42+00",17.8,20.8,,65.3,779,189,30,1025.73,66.6,92.8
"2017-10-13 19:32:42+00",15.8,18.8,,65.4,684,212,70,1025.57,66.5,98.9
"2017-10-13 19:37:42+00",21.5,24.5,,65,944,242,59,1025.61,66.3,73.2
"2017-10-13 19:42:42+00",16.7,20.7,,65.2,745,140,62,1025.6,66.3,115.6
"2017-10-13 19:47:42+00",18.1,20.1,,65.2,791,235,42,1025.54,66.5,75.5
"2017-10-13 19:52:42+00",17.7,19.7,,65.1,787,167,49,1025.5,66.4,43
"2017-10-13 19:57:42+00",19.3,22.3,,65,846,207,48,1025.51,66.2,45.5
"2017-10-13 20:02:42+00",19.2,21.2,,64.9,847,216,50,1025.48,66.1,56
"2017-10-13 20:07:42+00",17.9,20.9,,65,789,157,63,1025.4,66.1,71.8
"2017-10-13 20:12:42+00",18.8,20.8,,64.9,842,80,42,1025.46,66.1,64.9
"2017-10-13 20:17:42+00",18.3,21.3,,65,815,95,51,1025.43,66.1,49.8
"2017-10-13 20:22:42+00",18.0,20.0,,64.9,786,235,59,1025.45,66,23
"2017-10-13 20:27:42+00",19.9,20.9,,64.9,867,232,42,1025.43,65.8,23.5
"2017-10-13 20:32:42+00",21.8,23.8,,64.8,966,202,37,1025.43,65.6,13.1
"2017-10-13 20:37:42+00",20.3,22.3,,64.8,892,137,44,1025.46,65.5,6.5
"2017-10-13 20:42:42+00",17.8,20.8,,64.9,794,114,30,1025.37,65.4,0
"2017-10-13 20:47:42+00",19.8,23.8,,64.9,882,115,34,1025.37,65.4,0
"2017-10-13 20:52:42+00",19.0,22.0,,64.9,836,129,56,1025.38,65.3,0
"2017-10-13 20:57:42+00",17.8,19.8,,64.8,792,91,57,1025.35,65.2,0
"2017-10-13 21:02:42+00",20.4,23.4,,64.6,906,37,45,1025.21,64.9,0
"2017-10-13 21:07:42+00",18.4,20.4,,64.5,815,121,38,1025.22,64.8,4.1
"2017-10-13 21:12:42+00",17.1,19.1,,64.6,751,153,50,1025.22,64.7,7.1
"2017-10-13 21:17:42+00",19.1,20.1,,64.8,841,150,37,1025.1,64.8,2.1
"2017-10-13 21:22:42+00",17.3,20.3,,64.9,766,106,55,1025.15,64.9,2.2
"2017-10-13 21:27:42+00",18.7,21.7,,64.9,824,99,45,1025.14,65,0.2
"2017-10-13 21:32:42+00",17.3,19.3,,64.8,752,205,52,1025.12,64.9,0
"2017-10-13 21:37:42+00",15.2,17.2,,64.9,658,136,43,1025.18,64.9,0
"2017-10-13 21:42:42+00",17.8,19.8,,64.9,772,159,47,1025.21,64.8,0
"2017-10-13 21:47:42+00",16.0,17.0,,65.1,703,130,38,1025.19,64.9,0
"2017-10-13 21:52:42+00",13.9,16.9,,65.2,608,98,33,1025.21,64.9,0
"2017-10-13 21:57:42+00",14.3,16.3,,65.1,619,199,52,1025.2,65,0
"2017-10-13 22:02:42+00",15.2,17.2,,65,659,198,57,1025.17,65,0
"2017-10-13 22:07:42+00",16.5,18.5,,65.2,726,154,38,1025.11,64.9,0
"2017-10-13 22:12:42+00",15.3,19.3,,65.3,665,150,48,1025.03,65,0
"2017-10-13 22:17:42+00",16.4,19.4,,65.3,712,165,30,1025.08,65.1,0
"2017-10-13 22:22:42+00",15.6,18.6,,65.1,684,176,41,1025.03,65,0
"2017-10-13 22:27:42+00",16.6,18.6,,65.2,728,134,52,1024.89,64.9,0
"2017-10-13 22:32:42+00",17.9,19.9,,65,775,276,39,1024.91,64.9,0
"2017-10-13 22:37:42+00",15.8,18.8,,64.9,664,250,43,1024.91,64.8,0
"2017-10-13 22:42:42+00",12.7,14.7,,64.9,544,159,53,1025.01,64.8,0
"2017-10-13 22:47:42+00",16.6,19.6,,65,725,190,37,1024.96,64.8,0
"2017-10-13 22:52:42+00",16.3,18.3,,65,713,171,43,1024.91,64.8,0
"2017-10-13 22:57:42+00",18.5,20.5,,65.1,807,150,43,1024.95,64.7,0
"2017-10-13 23:02:42+00",16.1,19.1,,65.1,698,163,47,1025.05,64.8,0
"2017-10-13 23:07:42+00",17.4,19.4,,65,755,207,47,1025.08,64.8,0
"2017-10-13 23:12:42+00",16.2,18.2,,64.9,691,268,32,1025.1,64.8,0
"2017-10-13 23:17:42+00",16.4,18.4,,64.8,716,208,38,1025.12,64.7,0
"2017-10-13 23:22:42+00",16.7,18.7,,64.9,727,183,51,1025.14,64.7,0
"2017-10-13 23:27:42+00",15.8,17.8,,64.9,679,215,32,1025.13,64.7,0
"2017-10-13 23:32:42+00",16.2,19.2,,64.9,711,187,50,1025.07,64.7,0
"2017-10-13 23:37:42+00",17.3,19.3,,64.9,753,219,36,1025.05,64.7,0
"2017-10-13 23:42:42+00",13.3,15.3,,64.8,575,182,36,1025.04,64.6,0
"2017-10-13 23:47:42+00",17.1,20.1,,64.8,742,237,43,1024.96,64.6,0
"2017-10-13 23:52:42+00",15.4,18.4,,64.9,670,192,39,1024.94,64.6,0
"2017-10-13 23:57:42+00",16.1,18.1,,64.8,699,186,33,1024.86,64.6,0
